Regional Weather Roundup
Issued by NWS

Home | Current Version | Previous Version | Graphics & Text | Print | Product List | Glossary On
Versions: 1 2 3 4 5 6 7 8 9 10 11 12 13 14 15 16 17 18 19 20 21 22 23 24 25 26 27 28 29 30 31 32 33 34 35 36 37 38 39 40 41 42 43 44 45 46 47 48 49 50
000
ASUS43 KFSD 240410
RWRSD

WEATHER ROUNDUP FOR SOUTH DAKOTA
NATIONAL WEATHER SERVICE SIOUX FALLS SD
1100 PM CDT SAT JUL 23 2016

NOTE: "FAIR" INDICATES FEW OR NO CLOUDS BELOW 12,000 FEET WITH NO
SIGNIFICANT WEATHER AND/OR OBSTRUCTIONS TO VISIBILITY.


SDZ001>005-009-010-012>017-240500-
NORTHWEST AND NORTH CENTRAL SOUTH DAKOTA

CITY           SKY/WX    TMP DP  RH WIND       PRES   REMARKS
BUFFALO          N/A     69  43  38 N14       29.97R
FAITH            N/A     72  39  30 NW12      29.97R
MOBRIDGE       CLEAR     68  56  65 NW5       29.87R
$$

SDZ012>016-024>037-041>051-057-063-072>074-240500-
SOUTHWEST AND SOUTH CENTRAL SOUTH DAKOTA

CITY           SKY/WX    TMP DP  RH WIND       PRES   REMARKS
RAPID CTY ARPT CLEAR     69  41  36 N13       30.02R
PIERRE         CLEAR     69  56  62 N6        29.89R
CUSTER         CLEAR     66  38  35 NE10      30.18R
ELLSWORTH AFB  CLEAR     76  39  25 N5        30.03R
PHILIP         CLEAR     71  49  45 CALM      29.95R
PINE RIDGE     PTCLDY    67  53  61 NE7       30.02R
WINNER         FAIR      73  57  57 NW7       29.93R
$$

SDZ004>011-016>023-039-040-240500-
NORTHEAST SOUTH DAKOTA

CITY           SKY/WX    TMP DP  RH WIND       PRES   REMARKS
ABERDEEN       CLEAR     72  66  81 NW5       29.83R
WATERTOWN      PTCLDY    79  70  74 NW16      29.83R
BROOKINGS      CLEAR     79  74  84 NW10      29.81R
SISSETON         N/A     76  69  79 N10       29.79R
$$

SDZ017-020-022-023-036>040-048>070-240500-
SOUTHEAST SOUTH DAKOTA

CITY           SKY/WX    TMP DP  RH WIND       PRES   REMARKS
SIOUX FALLS    PTCLDY    84  76  76 SW6       29.78R
HURON          CLEAR     72  68  87 NW7       29.84R
CHAMBERLAIN    CLEAR     78  63  59 NW7       29.89R
MITCHELL       CLEAR     79  70  74 N13       29.84R
YANKTON        PTCLDY    84  75  74 SW8       29.77R
$$

ABBREVIATIONS USED IN REMARKS
   TC - TEMPERATURE IN CELSIUS
  WCI - WIND CHILL INDEX
   HX - HEAT INDEX
  VSB - VISIBILITY




USA.gov is the U.S. government's official web portal to all federal, state and local government web resources and services.